Regional Weather Roundup
Issued by NWS Little Rock, AR

Home | Current Version | Previous Version | Graphics & Text | Print | Product List | Glossary On
Versions: 1 2 3 4 5 6 7 8 9 10 11 12 13 14 15 16 17 18 19 20 21 22 23 24 25 26 27 28 29 30 31
000
ASUS44 KLZK 241505
RWRLZK

WEATHER ROUNDUP FOR ARKANSAS
NATIONAL WEATHER SERVICE LITTLE ROCK AR
1000 AM CDT FRI MAR 24 2017

NOTE: "FAIR" INDICATES FEW OR NO CLOUDS BELOW 12,000 FEET WITH NO
SIGNIFICANT WEATHER AND/OR OBSTRUCTIONS TO VISIBILITY.

ARZ001-003-010-029-241600-
NORTHWEST ARKANSAS

CITY           SKY/WX    TMP DP  RH WIND       PRES   REMARKS
FAYETTEVILLE   PTSUNNY   65  54  67 S23G39    29.95R
FORT SMITH     CLOUDY    69  53  56 SE8       29.96R
HARRISON       PTSUNNY   66  51  58 S23G33    29.98S
BENTONVILLE    CLOUDY    66  48  52 S21       29.95S
ROGERS         CLOUDY    67  51  56 S25G37    29.95S
SILOAM SPGS    CLOUDY    64  48  55 S21G30    29.94R
HIGHFILL       CLOUDY    66  51  58 S23G39    29.93S
SPRINGDALE     PTSUNNY   68  52  56 S17G29    29.97R
$$

ARZ004-005-016-241600-
NORTH CENTRAL ARKANSAS

CITY           SKY/WX    TMP DP  RH WIND       PRES   REMARKS
BATESVILLE     CLOUDY    68  57  68 S9G17     30.11R
FLIPPIN        CLOUDY    70  50  49 S15G28    29.99S
MTN HOME       PTSUNNY   68  52  56 SW16G30   30.01S
$$

ARZ040-041-241600-
WEST CENTRAL ARKANSAS

CITY           SKY/WX    TMP DP  RH WIND       PRES   REMARKS
MENA           CLOUDY    70  63  78 S9G23     29.98R
MOUNT IDA      CLOUDY    68  58  70 S9        30.01F
$$

ARZ009-017-025-026-028-241600-
NORTHEAST ARKANSAS

CITY           SKY/WX    TMP DP  RH WIND       PRES   REMARKS
CORNING        CLOUDY    66  61  82 S20G30    30.14R
JONESBORO      CLOUDY    67  60  78 S15G24    30.14R
NEWPORT        CLOUDY    69  61  75 S20       30.12S
WALNUT RIDGE   CLOUDY    66  57  72 S21G26    30.13R
BLYTHEVILLE    CLOUDY    68  61  78 S14       30.17R
$$

ARZ022-023-033-042-044-241600-
CENTRAL ARKANSAS

CITY           SKY/WX    TMP DP  RH WIND       PRES   REMARKS
LITTLE ROCK    CLOUDY    69  63  81 S14       30.11R
N LITTLE ROCK    N/A     68  61  79 S8G16     30.10R
JACKSONVILLE   CLOUDY    68  61  78 SE6       30.10R
CONWAY           N/A     68  61  77 SE13      30.07S
SEARCY         PTSUNNY   70  63  78 S16G22    30.13R
HOT SPRINGS    CLOUDY    68  60  75 SE10      30.08R
RUSSELLVILLE   PTSUNNY   67  56  67 SE9G21    30.04S
CLINTON        FAIR      68  59  73 SE13G21   30.07F
$$

ARZ036-241600-
EAST ARKANSAS

CITY           SKY/WX    TMP DP  RH WIND       PRES   REMARKS
WEST MEMPHIS   CLOUDY    69  61  75 S15G24    30.15F
$$

ARZ050-053-066-070-073-241600-
SOUTHWEST ARKANSAS

CITY           SKY/WX    TMP DP  RH WIND       PRES   REMARKS
ARKADELPHIA    CLOUDY    70  62  76 S7        30.08S
CAMDEN         PTSUNNY   72  59  64 S10       30.10S
TEXARKANA      CLOUDY    67  61  81 SE15      30.04S
EL DORADO      PTSUNNY   70  62  76 SE12      30.10S
DE QUEEN       CLOUDY    68  61  78 SE10G20   29.98S
$$

ARZ056-057-069-241600-
SOUTHEAST ARKANSAS

CITY           SKY/WX    TMP DP  RH WIND       PRES   REMARKS
PINE BLUFF     PTSUNNY   69  61  75 S15       30.13R
STUTTGART      CLOUDY    70  54  56 S14G20    30.14S
MONTICELLO     CLOUDY    69  62  78 S8        30.14S

$$






USA.gov is the U.S. government's official web portal to all federal, state and local government web resources and services.